GW2166 Weather Reports


Display with metric or nautical units.
time (UTC)temp
F
wind
direction
speed
MPH
gust
MPH
rain 1hr
in
rain 24hr
in
rain mn
in
humidity
%
barometer
mb
20260508142231 59 175 5.0 11.0 0.00 0.00 0.00 75 1009.5
20260508141731 59 202 4.0 11.0 0.00 0.00 0.00 75 1009.5
20260508141232 59 195 5.0 11.0 0.00 0.00 0.00 75 1009.5
20260508140730 58 154 3.0 9.0 0.00 0.00 0.00 76 1009.6
20260508135727 58 209 4.0 7.0 0.00 0.00 0.00 75 1009.7
20260508135228 58 158 2.0 7.0 0.00 0.00 0.00 77 1009.6
20260508134725 58 159 5.0 7.0 0.00 0.00 0.00 77 1009.6
20260508134226 58 189 3.0 9.0 0.00 0.00 0.00 76 1009.6
20260508133727 57 155 3.0 9.0 0.00 0.00 0.00 76 1009.6
20260508132725 57 199 4.0 9.0 0.00 0.00 0.00 76 1009.5
20260508132223 57 193 3.0 9.0 0.00 0.00 0.00 77 1009.3
20260508131720 57 144 4.0 10.0 0.00 0.00 0.00 76 1009.2
20260508131221 56 224 4.0 10.0 0.00 0.00 0.00 77 1009.3
20260508130721 56 223 5.0 12.0 0.00 0.00 0.00 77 1009.2
20260508130219 56 179 6.0 12.0 0.00 0.00 0.00 77 1009.3
20260508125719 56 183 5.0 10.0 0.00 0.00 0.00 78 1009.2
20260508125220 56 179 4.0 10.0 0.00 0.00 0.00 77 1009.2
20260508124717 56 140 5.0 10.0 0.00 0.00 0.00 77 1009.2
20260508124217 56 197 5.0 10.0 0.00 0.00 0.00 77 1009.3
20260508123717 55 186 5.0 10.0 0.00 0.00 0.00 77 1009.3
20260508123214 55 203 5.0 12.0 0.00 0.00 0.00 77 1009.4
20260508122714 55 197 4.0 12.0 0.00 0.00 0.00 78 1009.3
20260508122215 55 190 4.0 10.0 0.00 0.00 0.00 78 1009.1
20260508121716 55 189 4.0 10.0 0.00 0.00 0.00 78 1009.2
20260508121217 55 159 4.0 9.0 0.00 0.00 0.00 78 1009.1
20260508120713 55 178 5.0 10.0 0.00 0.00 0.00 78 1009.0
20260508120211 55 180 4.0 10.0 0.00 0.00 0.00 78 1009.1
20260508115710 55 217 4.0 10.0 0.00 0.00 0.00 78 1009.1
20260508115211 55 190 4.0 10.0 0.00 0.00 0.00 77 1009.1
20260508114208 55 188 4.0 9.0 0.00 0.00 0.00 78 1009.2
20260508113207 55 203 4.0 11.0 0.00 0.00 0.00 77 1009.0
20260508112706 55 199 4.0 11.0 0.00 0.00 0.00 78 1008.9
20260508112207 55 169 5.0 10.0 0.00 0.00 0.00 78 1009.0
20260508111705 55 175 4.0 10.0 0.00 0.00 0.00 78 1009.0
20260508110705 55 192 4.0 9.0 0.00 0.00 0.00 77 1009.0
20260508110206 55 220 4.0 9.0 0.00 0.00 0.00 77 1009.2
20260508105705 55 238 2.0 6.0 0.00 0.00 0.00 76 1009.5
20260508105203 55 217 3.0 6.0 0.00 0.00 0.00 77 1009.2
20260508104203 55 219 3.0 7.0 0.00 0.00 0.00 77 1008.9
20260508103704 55 185 3.0 7.0 0.00 0.00 0.00 77 1008.9
20260508103203 55 226 3.0 7.0 0.00 0.00 0.00 77 1008.9
20260508102701 55 197 4.0 11.0 0.00 0.00 0.00 76 1009.0
20260508102202 55 173 2.0 11.0 0.00 0.00 0.00 76 1009.1
20260508101701 55 223 4.0 9.0 0.00 0.00 0.00 77 1008.8
20260508101202 55 190 3.0 9.0 0.00 0.00 0.00 76 1008.9
20260508100703 55 219 3.0 9.0 0.00 0.00 0.00 77 1008.9
20260508100203 55 213 4.0 11.0 0.00 0.00 0.00 77 1008.9
20260508095202 55 186 4.0 9.0 0.00 0.00 0.00 77 1008.9
20260508094702 55 197 3.0 10.0 0.00 0.00 0.00 78 1008.9
20260508094202 54 195 4.0 10.0 0.00 0.00 0.00 78 1008.8
20260508093202 54 192 3.0 6.0 0.00 0.00 0.00 78 1008.8
20260508092702 54 165 3.0 9.0 0.00 0.00 0.00 79 1008.7
20260508092203 54 230 3.0 9.0 0.00 0.00 0.00 80 1008.7
20260508091702 54 199 2.0 5.0 0.00 0.00 0.00 79 1008.7
20260508091201 54 145 2.0 4.0 0.00 0.00 0.00 80 1008.8
20260508090702 54 186 2.0 4.0 0.00 0.00 0.00 80 1008.8
20260508090202 54 140 1.0 4.0 0.00 0.00 0.00 80 1008.7
20260508085701 54 178 2.0 5.0 0.00 0.00 0.00 79 1008.8
20260508085202 54 172 2.0 5.0 0.00 0.00 0.00 80 1008.8
20260508084702 54 166 1.0 7.0 0.00 0.00 0.00 80 1008.9
20260508084203 54 185 2.0 7.0 0.00 0.00 0.00 80 1008.8
20260508083703 54 175 3.0 6.0 0.00 0.00 0.00 80 1008.8
20260508083202 54 188 2.0 5.0 0.00 0.00 0.00 81 1008.9
20260508082203 54 182 2.0 4.0 0.00 0.00 0.00 80 1009.0
20260508081702 54 182 1.0 4.0 0.00 0.00 0.00 81 1009.0
20260508081202 54 166 1.0 5.0 0.00 0.00 0.00 80 1009.0
20260508080702 54 185 1.0 5.0 0.00 0.00 0.00 80 1009.1
20260508075702 54 180 2.0 6.0 0.00 0.00 0.00 81 1009.2
20260508075203 53 175 2.0 6.0 0.00 0.00 0.00 81 1009.3
20260508074702 53 180 3.0 5.0 0.00 0.00 0.00 82 1009.4
20260508074202 53 199 2.0 4.0 0.00 0.00 0.00 82 1009.4
20260508073702 53 178 2.0 5.0 0.00 0.00 0.00 82 1009.5
20260508073202 53 171 3.0 5.0 0.00 0.00 0.00 83 1009.6
20260508072202 53 166 3.0 5.0 0.00 0.00 0.00 82 1009.7
20260508071702 53 172 2.0 6.0 0.00 0.00 0.00 83 1009.9
20260508070702 53 175 2.0 7.0 0.00 0.00 0.00 83 1010.0
20260508070202 53 164 2.0 7.0 0.00 0.00 0.00 83 1010.0
20260508065201 53 172 0.0 4.0 0.00 0.00 0.00 82 1010.2
20260508064702 53 178 1.0 3.0 0.00 0.00 0.00 83 1010.2
20260508064203 53 178 0.0 3.0 0.00 0.00 0.00 83 1010.2
20260508063702 53 219 1.0 2.0 0.00 0.00 0.00 82 1010.3
20260508063202 53 219 0.0 2.0 0.00 0.00 0.00 83 1010.4
20260508062702 53 219 0.0 2.0 0.00 0.00 0.00 83 1010.5
20260508062203 53 219 0.0 0.0 0.00 0.00 0.00 83 1010.8
20260508061702 53 219 0.0 1.0 0.00 0.00 0.00 82 1010.8
20260508061202 53 219 0.0 2.0 0.00 0.00 0.00 83 1010.6
20260508060702 52 219 0.0 2.0 0.00 0.00 0.00 82 1010.6
20260508060202 52 219 1.0 2.0 0.00 0.00 0.00 82 1010.8
20260508055703 52 200 1.0 5.0 0.00 0.00 0.00 83 1010.6
20260508055203 52 185 0.0 5.0 0.00 0.00 0.00 82 1010.6
20260508054201 52 178 2.0 3.0 0.00 0.00 0.00 81 1010.4
20260508053703 52 176 1.0 4.0 0.00 0.00 0.00 81 1010.4
20260508052702 53 197 2.0 5.0 0.00 0.00 0.00 80 1010.4
20260508052202 53 158 1.0 5.0 0.00 0.00 0.00 79 1010.4
20260508051202 53 169 2.0 4.0 0.00 0.00 0.00 78 1010.5
20260508050202 54 179 3.0 5.0 0.00 0.00 0.00 78 1010.6
20260508045702 54 179 3.0 5.0 0.00 0.00 0.00 77 1010.5
20260508045202 54 165 2.0 4.0 0.00 0.00 0.00 77 1010.5
20260508044702 55 162 2.0 5.0 0.00 0.00 0.00 77 1010.4
20260508044202 55 171 3.0 5.0 0.00 0.00 0.00 75 1010.6
20260508043702 55 183 3.0 5.0 0.00 0.00 0.00 75 1010.6
20260508042702 56 193 3.0 5.0 0.00 0.00 0.00 75 1010.8
20260508041702 56 162 4.0 9.0 0.00 0.00 0.00 74 1010.8
20260508041203 56 171 3.0 9.0 0.00 0.00 0.00 73 1010.8
20260508040203 57 173 3.0 9.0 0.00 0.00 0.00 72 1010.6
20260508035703 57 190 4.0 10.0 0.00 0.00 0.00 72 1010.6
20260508035202 57 202 4.0 10.0 0.00 0.00 0.00 72 1010.6
20260508034203 57 171 4.0 9.0 0.00 0.00 0.00 71 1010.8
20260508033702 58 172 4.0 11.0 0.00 0.00 0.00 71 1010.8
20260508033201 58 189 4.0 11.0 0.00 0.00 0.00 70 1010.6
20260508032702 58 168 4.0 7.0 0.00 0.00 0.00 70 1010.6
20260508032202 58 188 3.0 6.0 0.00 0.00 0.00 69 1010.6
20260508031702 59 180 3.0 6.0 0.00 0.00 0.00 70 1010.5
20260508031202 59 171 3.0 6.0 0.00 0.00 0.00 69 1010.5
20260508030702 59 161 3.0 6.0 0.00 0.00 0.00 69 1010.6
20260508025702 59 176 4.0 10.0 0.00 0.00 0.00 69 1010.4
20260508025203 60 189 4.0 9.0 0.00 0.00 0.00 68 1010.4
20260508024702 60 175 4.0 7.0 0.00 0.00 0.00 68 1010.4
20260508024203 60 192 4.0 7.0 0.00 0.00 0.00 68 1010.2
20260508023702 60 178 4.0 7.0 0.00 0.00 0.00 67 1010.2
20260508022703 60 182 4.0 9.0 0.00 0.00 0.00 67 1010.0
20260508021702 61 185 4.0 7.0 0.00 0.00 0.00 66 1009.9
20260508020217 62 179 3.0 6.0 0.00 0.00 0.00 65 1009.9
20260508015702 62 197 3.0 6.0 0.00 0.00 0.00 64 1009.8
20260508014703 62 192 4.0 9.0 0.00 0.00 0.00 64 1009.8
20260508014202 62 175 3.0 9.0 0.00 0.00 0.00 64 1009.7
20260508013702 63 193 3.0 9.0 0.00 0.00 0.00 63 1009.6
20260508013202 63 188 4.0 9.0 0.00 0.00 0.00 62 1009.6
20260508012702 63 195 4.0 7.0 0.00 0.00 0.00 61 1009.6
20260508012202 64 230 3.0 7.0 0.00 0.00 0.00 61 1009.6
20260508011702 64 189 4.0 6.0 0.00 0.00 0.00 61 1009.5
20260508011202 64 183 4.0 9.0 0.00 0.00 0.00 60 1009.6
20260508010702 65 158 4.0 9.0 0.00 0.00 0.00 59 1009.6
20260508010202 65 175 4.0 7.0 0.00 0.00 0.00 58 1009.5
20260508005702 66 166 4.0 7.0 0.00 0.00 0.00 59 1009.5
20260508005202 66 152 3.0 5.0 0.00 0.00 0.00 59 1009.5
20260508004701 67 186 3.0 5.0 0.00 0.00 0.00 57 1009.5
20260508004202 67 171 2.0 5.0 0.00 0.00 0.00 56 1009.5
20260508003702 68 179 2.0 7.0 0.00 0.00 0.00 56 1009.5
20260508003203 68 142 2.0 7.0 0.00 0.00 0.00 53 1009.6
20260508002702 69 175 3.0 5.0 0.00 0.00 0.00 52 1009.6
20260508002203 69 182 3.0 7.0 0.00 0.00 0.00 50 1009.5
20260508001703 70 182 4.0 7.0 0.00 0.00 0.00 49 1009.6
20260508001201 70 189 5.0 10.0 0.00 0.00 0.00 48 1009.6
20260508000702 71 169 4.0 10.0 0.00 0.00 0.00 47 1009.7
20260508000204 71 185 6.0 13.0 0.00 0.00 0.00 46 1009.7
20260507235702 72 204 6.0 13.0 0.00 0.00 0.00 45 1009.7
20260507235203 72 165 5.0 10.0 0.00 0.00 0.00 45 1009.5
20260507234703 72 192 4.0 14.0 0.00 0.00 0.00 46 1009.6
20260507234203 72 217 4.0 14.0 0.00 0.00 0.00 45 1009.7
20260507233702 72 178 7.0 12.0 0.00 0.00 0.00 44 1009.8
20260507233202 72 221 5.0 12.0 0.00 0.00 0.00 46 1009.8
20260507232702 72 207 6.0 12.0 0.00 0.00 0.00 45 1009.9
20260507232201 72 196 5.0 11.0 0.00 0.00 0.00 46 1009.9
20260507231702 72 228 5.0 15.0 0.00 0.00 0.00 44 1010.0
20260507231202 72 216 8.0 15.0 0.00 0.00 0.00 45 1010.0
20260507230202 72 200 4.0 14.0 0.00 0.00 0.00 46 1010.0
20260507225702 72 272 6.0 14.0 0.00 0.00 0.00 46 1010.1
20260507225203 72 261 5.0 15.0 0.00 0.00 0.00 47 1010.0
20260507224702 72 217 7.0 16.0 0.00 0.00 0.00 44 1010.2
20260507224203 72 206 8.0 16.0 0.00 0.00 0.00 45 1010.2
20260507223702 72 243 4.0 17.0 0.00 0.00 0.00 46 1010.3
20260507223201 72 144 9.0 17.0 0.00 0.00 0.00 47 1010.2
20260507222702 72 207 4.0 15.0 0.00 0.00 0.00 47 1010.4
20260507222203 72 216 8.0 16.0 0.00 0.00 0.00 46 1010.5
20260507221702 72 233 8.0 16.0 0.00 0.00 0.00 44 1010.4
20260507221202 72 221 8.0 17.0 0.00 0.00 0.00 42 1010.3
20260507220703 72 241 6.0 17.0 0.00 0.00 0.00 45 1010.4
20260507220202 73 200 8.0 17.0 0.00 0.00 0.00 46 1010.4
20260507215702 73 238 7.0 17.0 0.00 0.00 0.00 46 1010.4
20260507214701 72 169 8.0 16.0 0.00 0.00 0.00 45 1010.5
20260507214203 72 204 8.0 16.0 0.00 0.00 0.00 49 1010.6
20260507213702 72 178 9.0 17.0 0.00 0.00 0.00 46 1010.8
20260507213202 72 204 8.0 17.0 0.00 0.00 0.00 45 1010.8
20260507212702 72 203 8.0 17.0 0.00 0.00 0.00 46 1010.9
20260507212202 72 161 9.0 17.0 0.00 0.00 0.00 47 1010.9
20260507211702 72 247 8.0 16.0 0.00 0.00 0.00 47 1011.1
20260507211203 72 202 8.0 13.0 0.00 0.00 0.00 49 1011.1
20260507210701 72 204 7.0 15.0 0.00 0.00 0.00 50 1011.3
20260507210202 72 254 9.0 15.0 0.00 0.00 0.00 48 1011.3
20260507205702 72 227 6.0 19.0 0.00 0.00 0.00 50 1011.4
20260507205203 72 203 9.0 19.0 0.00 0.00 0.00 50 1011.5
20260507204202 71 264 8.0 17.0 0.00 0.00 0.00 49 1011.9
20260507203701 71 237 7.0 14.0 0.00 0.00 0.00 51 1011.8
20260507203202 71 227 7.0 14.0 0.00 0.00 0.00 47 1012.0
20260507202703 71 166 6.0 17.0 0.00 0.00 0.00 51 1012.1
20260507202202 71 240 7.0 22.0 0.00 0.00 0.00 52 1012.3
20260507201702 70 193 7.0 22.0 0.00 0.00 0.00 52 1012.3
20260507201202 70 216 10.0 19.0 0.00 0.00 0.00 53 1012.4
20260507200703 70 210 10.0 19.0 0.00 0.00 0.00 53 1012.6
20260507200202 70 197 7.0 18.0 0.00 0.00 0.00 53 1012.5
20260507195202 69 188 10.0 21.0 0.00 0.00 0.00 52 1012.7
20260507194702 69 165 9.0 20.0 0.00 0.00 0.00 52 1012.7
20260507194202 69 214 7.0 18.0 0.00 0.00 0.00 53 1012.8
20260507193703 69 230 8.0 18.0 0.00 0.00 0.00 52 1012.8
20260507193202 69 203 9.0 19.0 0.00 0.00 0.00 53 1012.8
20260507190204 68 192 10.0 21.0 0.00 0.00 0.00 55 1013.1
20260507185702 68 213 9.0 21.0 0.00 0.00 0.00 55 1013.2
20260507184703 67 200 9.0 20.0 0.00 0.00 0.00 56 1013.3
20260507184203 67 235 10.0 20.0 0.00 0.00 0.00 56 1013.4
20260507183202 67 220 11.0 20.0 0.00 0.00 0.00 56 1013.7
20260507182702 67 228 9.0 19.0 0.00 0.00 0.00 58 1013.6
20260507182202 67 220 8.0 19.0 0.00 0.00 0.00 58 1013.9
20260507181702 66 204 9.0 19.0 0.00 0.00 0.00 58 1014.0
20260507181202 66 233 10.0 21.0 0.00 0.00 0.00 58 1014.0
20260507180702 65 224 8.0 21.0 0.00 0.00 0.00 59 1014.1
20260507180202 65 258 9.0 24.0 0.00 0.00 0.00 61 1014.2
20260507175703 65 217 10.0 24.0 0.00 0.00 0.00 59 1014.2
20260507175202 64 199 7.0 19.0 0.00 0.00 0.00 61 1014.3
20260507174702 65 221 10.0 19.0 0.00 0.00 0.00 58 1014.5
20260507173204 64 226 10.0 18.0 0.00 0.00 0.00 61 1014.7
20260507172703 64 213 9.0 18.0 0.00 0.00 0.00 58 1014.8
20260507172201 64 233 9.0 18.0 0.00 0.00 0.00 60 1014.9
20260507171703 64 231 9.0 26.0 0.00 0.00 0.00 60 1015.1
20260507170702 64 234 7.0 17.0 0.00 0.00 0.00 63 1015.1
20260507170202 63 202 6.0 16.0 0.00 0.00 0.00 61 1015.1
20260507165702 63 237 9.0 19.0 0.00 0.00 0.00 64 1015.2
20260507165202 63 186 8.0 19.0 0.00 0.00 0.00 60 1015.2
20260507163703 63 219 8.0 21.0 0.00 0.00 0.00 64 1015.5
20260507163201 63 212 11.0 21.0 0.00 0.00 0.00 63 1015.6
20260507162702 62 228 6.0 19.0 0.00 0.00 0.00 66 1015.5
20260507162203 62 266 8.0 19.0 0.00 0.00 0.00 65 1015.6
20260507161703 61 175 7.0 13.0 0.00 0.00 0.00 64 1015.8
20260507160702 62 224 6.0 15.0 0.00 0.00 0.00 61 1015.8
20260507160202 62 213 6.0 21.0 0.00 0.00 0.00 63 1015.8
20260507155702 62 204 6.0 21.0 0.00 0.00 0.00 63 1015.7
20260507155202 62 240 10.0 20.0 0.00 0.00 0.00 63 1015.6
20260507154702 62 231 11.0 20.0 0.00 0.00 0.00 64 1015.8
20260507154203 62 274 6.0 14.0 0.00 0.00 0.00 65 1015.7
20260507153702 61 257 7.0 14.0 0.00 0.00 0.00 66 1015.9
20260507153202 61 243 7.0 20.0 0.00 0.00 0.00 69 1015.9
20260507152703 61 200 7.0 20.0 0.00 0.00 0.00 68 1016.0
20260507152202 61 238 5.0 13.0 0.00 0.00 0.00 69 1016.2
20260507151703 60 264 4.0 18.0 0.00 0.00 0.00 69 1016.2
20260507151203 60 226 5.0 18.0 0.00 0.00 0.00 69 1016.3
20260507150701 60 245 8.0 14.0 0.00 0.00 0.00 68 1016.2
20260507150202 60 203 7.0 15.0 0.00 0.00 0.00 69 1016.1
20260507145702 60 190 8.0 15.0 0.00 0.00 0.00 69 1016.2
20260507145202 59 212 5.0 11.0 0.00 0.00 0.00 72 1016.2
20260507144702 59 237 5.0 12.0 0.00 0.00 0.00 70 1016.2
20260507144201 58 305 3.0 12.0 0.00 0.00 0.00 71 1016.3
20260507143702 58 230 6.0 14.0 0.00 0.00 0.00 72 1016.3
20260507143203 58 202 7.0 14.0 0.00 0.00 0.00 72 1016.3